Time,TemperatureF,DewpointF,PressureIn,WindDirection,WindDirectionDegrees,WindSpeedMPH,WindSpeedGustMPH,Humidity,HourlyPrecipIn,Conditions,Clouds,dailyrainin,SolarRadiationWatts/m^2,SoftwareType,DateUTC
2013-08-19 00:02:00,67.2,62.9,29.83,SSW,199,8.0,11.0,86,0.00,,,0.00,0,Wunderground v.1.15,2013-08-19 05:02:00,
2013-08-19 00:07:00,67.1,62.8,29.82,South,186,10.0,11.0,86,0.00,,,0.00,0,Wunderground v.1.15,2013-08-19 05:07:00,
2013-08-19 00:12:00,66.8,62.5,29.83,South,183,9.0,9.0,86,0.00,,,0.00,0,Wunderground v.1.15,2013-08-19 05:12:00,
2013-08-19 00:17:00,66.7,62.4,29.83,SSW,197,7.0,11.0,86,0.00,,,0.00,0,Wunderground v.1.15,2013-08-19 05:17:00,
2013-08-19 00:22:00,66.6,62.3,29.83,SSW,196,6.0,8.0,86,0.00,,,0.00,0,Wunderground v.1.15,2013-08-19 05:22:00,
2013-08-19 00:27:00,66.6,62.3,29.83,South,190,6.0,10.0,86,0.00,,,0.00,0,Wunderground v.1.15,2013-08-19 05:27:00,
2013-08-19 00:32:00,66.6,62.3,29.83,SSW,198,9.0,9.0,86,0.00,,,0.00,0,Wunderground v.1.15,2013-08-19 05:32:00,
2013-08-19 00:37:00,66.7,62.4,29.83,South,188,6.0,12.0,86,0.00,,,0.00,0,Wunderground v.1.15,2013-08-19 05:37:00,
2013-08-19 00:42:00,66.7,62.4,29.83,SSW,205,9.0,9.0,86,0.00,,,0.00,0,Wunderground v.1.15,2013-08-19 05:42:00,
2013-08-19 00:48:00,66.6,62.3,29.83,South,190,5.0,9.0,86,0.00,,,0.00,0,Wunderground v.1.15,2013-08-19 05:48:00,
2013-08-19 00:53:00,66.5,62.5,29.83,SSW,194,8.0,8.0,87,0.00,,,0.00,0,Wunderground v.1.15,2013-08-19 05:53:00,
2013-08-19 00:58:00,66.3,62.3,29.83,SSW,196,6.0,8.0,87,0.00,,,0.00,0,Wunderground v.1.15,2013-08-19 05:58:00,
2013-08-19 01:03:00,66.1,62.1,29.83,South,188,5.0,6.0,87,0.00,,,0.00,0,Wunderground v.1.15,2013-08-19 06:03:00,
2013-08-19 01:08:00,65.9,61.9,29.83,South,188,6.0,6.0,87,0.00,,,0.00,0,Wunderground v.1.15,2013-08-19 06:08:00,
2013-08-19 01:14:00,65.7,61.7,29.82,South,182,7.0,7.0,87,0.00,,,0.00,0,Wunderground v.1.15,2013-08-19 06:14:00,
2013-08-19 01:19:00,65.5,61.5,29.82,South,187,7.0,8.0,87,0.00,,,0.00,0,Wunderground v.1.15,2013-08-19 06:19:00,
2013-08-19 01:24:00,65.6,61.9,29.81,South,185,7.0,8.0,88,0.00,,,0.00,0,Wunderground v.1.15,2013-08-19 06:24:00,
2013-08-19 01:29:00,65.6,61.9,29.81,SSW,192,8.0,8.0,88,0.00,,,0.00,0,Wunderground v.1.15,2013-08-19 06:29:00,
2013-08-19 01:34:00,65.6,61.9,29.81,South,175,11.0,11.0,88,0.00,,,0.00,0,Wunderground v.1.15,2013-08-19 06:34:00,
2013-08-19 01:39:00,65.8,62.1,29.81,South,188,9.0,11.0,88,0.00,,,0.00,0,Wunderground v.1.15,2013-08-19 06:39:00,
2013-08-19 01:45:00,65.8,62.1,29.81,SSW,194,5.0,11.0,88,0.00,,,0.00,0,Wunderground v.1.15,2013-08-19 06:45:00,
2013-08-19 01:50:00,65.9,62.2,29.81,SSW,196,6.0,7.0,88,0.00,,,0.00,0,Wunderground v.1.15,2013-08-19 06:50:00,
2013-08-19 01:55:00,65.9,62.2,29.81,SSW,203,7.0,7.0,88,0.00,,,0.00,0,Wunderground v.1.15,2013-08-19 06:55:00,
2013-08-19 02:00:00,66.0,62.0,29.81,SSW,196,9.0,9.0,87,0.00,,,0.00,0,Wunderground v.1.15,2013-08-19 07:00:00,
2013-08-19 02:05:00,65.9,61.9,29.81,SSW,200,9.0,12.0,87,0.00,,,0.00,0,Wunderground v.1.15,2013-08-19 07:05:00,
2013-08-19 02:10:00,66.1,62.1,29.81,SSW,199,7.0,10.0,87,0.00,,,0.00,0,Wunderground v.1.15,2013-08-19 07:10:00,
2013-08-19 02:15:00,66.0,62.0,29.81,SSW,197,7.0,15.0,87,0.00,,,0.00,0,Wunderground v.1.15,2013-08-19 07:15:00,
2013-08-19 02:20:00,66.0,62.0,29.81,South,191,8.0,10.0,87,0.00,,,0.00,0,Wunderground v.1.15,2013-08-19 07:20:00,
2013-08-19 02:25:00,66.0,62.0,29.81,SSW,197,7.0,14.0,87,0.00,,,0.00,0,Wunderground v.1.15,2013-08-19 07:25:00,
2013-08-19 02:30:00,66.0,62.0,29.81,SSW,199,7.0,9.0,87,0.00,,,0.00,0,Wunderground v.1.15,2013-08-19 07:30:00,
2013-08-19 02:35:00,66.0,62.0,29.81,SSW,198,7.0,9.0,87,0.00,,,0.00,0,Wunderground v.1.15,2013-08-19 07:35:00,
2013-08-19 02:40:00,65.9,61.9,29.81,South,170,5.0,8.0,87,0.00,,,0.00,0,Wunderground v.1.15,2013-08-19 07:40:00,
2013-08-19 02:45:00,65.9,61.9,29.81,South,190,5.0,9.0,87,0.00,,,0.00,0,Wunderground v.1.15,2013-08-19 07:45:00,
2013-08-19 02:50:00,66.0,62.0,29.81,South,188,5.0,6.0,87,0.00,,,0.00,0,Wunderground v.1.15,2013-08-19 07:50:00,
2013-08-19 02:55:00,65.9,61.9,29.81,South,189,6.0,8.0,87,0.00,,,0.00,0,Wunderground v.1.15,2013-08-19 07:55:00,
2013-08-19 03:00:00,65.9,61.9,29.81,South,190,8.0,8.0,87,0.00,,,0.00,0,Wunderground v.1.15,2013-08-19 08:00:00,
2013-08-19 03:05:00,65.7,62.0,29.81,South,188,7.0,9.0,88,0.00,,,0.00,0,Wunderground v.1.15,2013-08-19 08:05:00,
2013-08-19 03:10:00,65.5,61.9,29.80,South,181,7.0,8.0,88,0.00,,,0.00,0,Wunderground v.1.15,2013-08-19 08:10:00,
2013-08-19 03:15:00,65.4,61.8,29.80,South,189,7.0,9.0,88,0.00,,,0.00,0,Wunderground v.1.15,2013-08-19 08:15:00,
2013-08-19 03:20:00,65.3,61.7,29.80,SSW,192,7.0,8.0,88,0.00,,,0.00,0,Wunderground v.1.15,2013-08-19 08:20:00,
2013-08-19 03:25:00,65.2,61.6,29.80,South,189,10.0,11.0,88,0.00,,,0.00,0,Wunderground v.1.15,2013-08-19 08:25:00,
2013-08-19 03:30:00,65.2,61.6,29.80,South,180,9.0,10.0,88,0.00,,,0.00,0,Wunderground v.1.15,2013-08-19 08:30:00,
2013-08-19 03:35:00,65.2,61.6,29.80,South,189,8.0,10.0,88,0.00,,,0.00,0,Wunderground v.1.15,2013-08-19 08:35:00,
2013-08-19 03:40:00,65.1,61.5,29.80,South,180,10.0,10.0,88,0.00,,,0.00,0,Wunderground v.1.15,2013-08-19 08:40:00,
2013-08-19 03:45:00,65.0,61.4,29.79,South,182,8.0,11.0,88,0.00,,,0.00,0,Wunderground v.1.15,2013-08-19 08:45:00,
2013-08-19 03:50:00,64.9,61.3,29.80,SSW,194,6.0,8.0,88,0.00,,,0.00,0,Wunderground v.1.15,2013-08-19 08:50:00,
2013-08-19 03:55:00,64.8,61.5,29.80,SSW,196,8.0,12.0,89,0.00,,,0.00,0,Wunderground v.1.15,2013-08-19 08:55:00,
2013-08-19 04:00:00,64.7,61.4,29.79,SSW,192,7.0,8.0,89,0.00,,,0.00,0,Wunderground v.1.15,2013-08-19 09:00:00,
2013-08-19 04:05:00,64.6,61.3,29.79,South,178,8.0,11.0,89,0.00,,,0.00,0,Wunderground v.1.15,2013-08-19 09:05:00,
2013-08-19 04:10:00,64.5,61.2,29.79,South,181,8.0,9.0,89,0.00,,,0.00,0,Wunderground v.1.15,2013-08-19 09:10:00,
2013-08-19 04:15:00,64.3,61.0,29.79,South,187,8.0,10.0,89,0.00,,,0.00,0,Wunderground v.1.15,2013-08-19 09:15:00,
2013-08-19 04:20:00,64.2,60.9,29.80,SSW,193,5.0,7.0,89,0.00,,,0.00,0,Wunderground v.1.15,2013-08-19 09:20:00,
2013-08-19 04:25:00,64.1,60.8,29.79,South,188,7.0,12.0,89,0.00,,,0.00,0,Wunderground v.1.15,2013-08-19 09:25:00,
2013-08-19 04:30:00,64.0,60.7,29.79,South,182,7.0,8.0,89,0.00,,,0.00,0,Wunderground v.1.15,2013-08-19 09:30:00,
2013-08-19 04:35:00,64.1,61.1,29.79,South,188,6.0,12.0,90,0.00,,,0.00,0,Wunderground v.1.15,2013-08-19 09:35:00,
2013-08-19 04:40:00,64.0,61.0,29.79,SSW,192,7.0,9.0,90,0.00,,,0.00,0,Wunderground v.1.15,2013-08-19 09:40:00,
2013-08-19 04:45:00,64.1,61.1,29.78,South,187,7.0,13.0,90,0.00,,,0.00,0,Wunderground v.1.15,2013-08-19 09:45:00,
2013-08-19 04:50:00,64.0,61.0,29.79,South,188,8.0,8.0,90,0.00,,,0.00,0,Wunderground v.1.15,2013-08-19 09:50:00,
2013-08-19 04:55:00,64.1,61.1,29.78,South,189,9.0,11.0,90,0.00,,,0.00,0,Wunderground v.1.15,2013-08-19 09:55:00,
2013-08-19 05:00:00,64.1,61.1,29.78,South,187,8.0,9.0,90,0.00,,,0.00,0,Wunderground v.1.15,2013-08-19 10:00:00,
2013-08-19 05:05:00,64.1,61.1,29.78,South,188,8.0,11.0,90,0.00,,,0.00,0,Wunderground v.1.15,2013-08-19 10:05:00,
2013-08-19 05:10:00,64.1,61.1,29.78,South,190,9.0,11.0,90,0.00,,,0.00,0,Wunderground v.1.15,2013-08-19 10:10:00,
2013-08-19 05:15:00,64.0,61.0,29.79,South,189,4.0,11.0,90,0.00,,,0.00,0,Wunderground v.1.15,2013-08-19 10:15:00,
2013-08-19 05:20:00,64.0,61.0,29.78,South,190,6.0,8.0,90,0.00,,,0.00,0,Wunderground v.1.15,2013-08-19 10:20:00,
2013-08-19 05:25:00,63.9,60.9,29.78,South,190,5.0,10.0,90,0.00,,,0.00,0,Wunderground v.1.15,2013-08-19 10:25:00,
2013-08-19 05:30:00,63.8,60.8,29.79,South,190,5.0,7.0,90,0.00,,,0.00,0,Wunderground v.1.15,2013-08-19 10:30:00,
2013-08-19 05:35:00,63.8,60.8,29.79,South,190,5.0,10.0,90,0.00,,,0.00,0,Wunderground v.1.15,2013-08-19 10:35:00,
2013-08-19 05:40:00,63.7,60.7,29.79,South,189,6.0,6.0,90,0.00,,,0.00,0,Wunderground v.1.15,2013-08-19 10:40:00,
2013-08-19 05:45:00,63.6,60.6,29.79,South,189,6.0,7.0,90,0.00,,,0.00,0,Wunderground v.1.15,2013-08-19 10:45:00,
2013-08-19 05:50:00,63.6,60.6,29.79,South,189,4.0,6.0,90,0.00,,,0.00,0,Wunderground v.1.15,2013-08-19 10:50:00,
2013-08-19 05:55:00,63.4,60.4,29.79,South,189,4.0,6.0,90,0.00,,,0.00,0,Wunderground v.1.15,2013-08-19 10:55:00,
2013-08-19 06:00:00,63.2,60.2,29.80,South,189,3.0,4.0,90,0.00,,,0.00,0,Wunderground v.1.15,2013-08-19 11:00:00,
2013-08-19 06:05:00,63.1,60.1,29.80,South,189,4.0,5.0,90,0.00,,,0.00,0,Wunderground v.1.15,2013-08-19 11:05:00,
2013-08-19 06:10:00,63.1,60.1,29.80,South,189,4.0,4.0,90,0.00,,,0.00,0,Wunderground v.1.15,2013-08-19 11:10:00,
2013-08-19 06:15:00,63.0,60.0,29.79,South,189,5.0,6.0,90,0.00,,,0.00,0,Wunderground v.1.15,2013-08-19 11:15:00,
2013-08-19 06:20:00,62.9,59.9,29.79,South,189,6.0,6.0,90,0.00,,,0.00,0,Wunderground v.1.15,2013-08-19 11:20:00,
2013-08-19 06:25:00,62.9,59.9,29.79,South,188,7.0,8.0,90,0.00,,,0.00,0,Wunderground v.1.15,2013-08-19 11:25:00,
2013-08-19 06:30:00,63.0,60.0,29.79,South,173,8.0,10.0,90,0.00,,,0.00,0,Wunderground v.1.15,2013-08-19 11:30:00,
2013-08-19 06:35:00,63.0,60.0,29.79,South,171,7.0,11.0,90,0.00,,,0.00,0,Wunderground v.1.15,2013-08-19 11:35:00,
2013-08-19 06:40:00,63.1,60.1,29.79,South,174,6.0,7.0,90,0.00,,,0.00,0,Wunderground v.1.15,2013-08-19 11:40:00,
2013-08-19 06:45:00,63.1,60.1,29.79,South,179,8.0,12.0,90,0.00,,,0.00,0,Wunderground v.1.15,2013-08-19 11:45:00,
2013-08-19 06:50:00,63.1,60.1,29.79,South,176,6.0,10.0,90,0.00,,,0.00,5,Wunderground v.1.15,2013-08-19 11:50:00,
2013-08-19 06:55:00,63.2,60.2,29.79,South,173,8.0,11.0,90,0.00,,,0.00,9,Wunderground v.1.15,2013-08-19 11:55:00,
2013-08-19 07:00:00,63.3,60.3,29.79,South,172,8.0,9.0,90,0.00,,,0.00,12,Wunderground v.1.15,2013-08-19 12:00:00,
2013-08-19 07:05:00,63.3,60.3,29.79,South,181,8.0,14.0,90,0.00,,,0.00,18,Wunderground v.1.15,2013-08-19 12:05:00,
2013-08-19 07:10:00,63.4,60.4,29.79,South,188,10.0,10.0,90,0.00,,,0.00,23,Wunderground v.1.15,2013-08-19 12:10:00,
2013-08-19 07:15:00,63.5,60.5,29.79,South,189,8.0,12.0,90,0.00,,,0.00,30,Wunderground v.1.15,2013-08-19 12:15:00,
2013-08-19 07:20:00,63.7,60.7,29.79,South,186,8.0,8.0,90,0.00,,,0.00,37,Wunderground v.1.15,2013-08-19 12:20:00,
2013-08-19 07:25:00,63.8,60.8,29.79,SSW,192,7.0,14.0,90,0.00,,,0.00,46,Wunderground v.1.15,2013-08-19 12:25:00,
2013-08-19 07:30:00,63.9,60.9,29.79,South,189,12.0,12.0,90,0.00,,,0.00,53,Wunderground v.1.15,2013-08-19 12:30:00,
2013-08-19 07:35:00,64.0,61.0,29.79,South,187,10.0,12.0,90,0.00,,,0.00,62,Wunderground v.1.15,2013-08-19 12:35:00,
2013-08-19 07:40:00,64.1,61.1,29.79,South,186,7.0,10.0,90,0.00,,,0.00,72,Wunderground v.1.15,2013-08-19 12:40:00,
2013-08-19 07:45:00,64.3,61.3,29.79,South,175,8.0,12.0,90,0.00,,,0.00,84,Wunderground v.1.15,2013-08-19 12:45:00,
2013-08-19 07:50:00,64.5,61.5,29.78,South,186,10.0,11.0,90,0.00,,,0.00,100,Wunderground v.1.15,2013-08-19 12:50:00,
2013-08-19 07:55:00,64.7,61.7,29.78,South,181,7.0,15.0,90,0.00,,,0.00,114,Wunderground v.1.15,2013-08-19 12:55:00,
2013-08-19 08:00:00,64.9,61.9,29.78,South,177,10.0,10.0,90,0.00,,,0.00,130,Wunderground v.1.15,2013-08-19 13:00:00,
2013-08-19 08:05:00,65.1,62.1,29.79,South,184,11.0,12.0,90,0.00,,,0.00,144,Wunderground v.1.15,2013-08-19 13:05:00,
2013-08-19 08:10:00,65.3,62.3,29.79,South,186,9.0,11.0,90,0.00,,,0.00,160,Wunderground v.1.15,2013-08-19 13:10:00,
2013-08-19 08:16:00,65.6,62.6,29.79,SSW,196,12.0,14.0,90,0.00,,,0.00,179,Wunderground v.1.15,2013-08-19 13:16:00,
2013-08-19 08:21:00,65.9,62.9,29.78,South,179,12.0,15.0,90,0.00,,,0.00,195,Wunderground v.1.15,2013-08-19 13:21:00,
2013-08-19 08:26:00,66.2,63.2,29.78,South,189,7.0,15.0,90,0.00,,,0.00,211,Wunderground v.1.15,2013-08-19 13:26:00,
2013-08-19 08:31:00,66.6,63.3,29.78,South,174,16.0,16.0,89,0.00,,,0.00,229,Wunderground v.1.15,2013-08-19 13:31:00,
2013-08-19 08:36:00,67.0,63.6,29.78,South,189,14.0,16.0,89,0.00,,,0.00,246,Wunderground v.1.15,2013-08-19 13:36:00,
2013-08-19 21:12:00,75.6,70.8,29.67,South,186,7.0,7.0,85,0.00,,,0.00,0,Wunderground v.1.15,2013-08-20 02:12:00,
2013-08-19 21:18:00,75.4,70.6,29.67,South,188,8.0,13.0,85,0.00,,,0.00,0,Wunderground v.1.15,2013-08-20 02:18:00,
2013-08-19 21:23:00,75.2,70.7,29.67,SSW,192,7.0,8.0,86,0.00,,,0.00,0,Wunderground v.1.15,2013-08-20 02:23:00,
2013-08-19 21:28:00,75.0,70.5,29.67,South,187,7.0,9.0,86,0.00,,,0.00,0,Wunderground v.1.15,2013-08-20 02:28:00,
2013-08-19 21:33:00,74.9,70.4,29.68,South,190,6.0,7.0,86,0.00,,,0.00,0,Wunderground v.1.15,2013-08-20 02:33:00,
2013-08-19 21:38:00,74.8,70.3,29.68,South,188,7.0,7.0,86,0.00,,,0.00,0,Wunderground v.1.15,2013-08-20 02:38:00,
2013-08-19 21:43:00,74.7,70.6,29.68,South,190,7.0,10.0,87,0.00,,,0.00,0,Wunderground v.1.15,2013-08-20 02:43:00,
2013-08-19 21:48:00,74.6,70.1,29.68,South,187,4.0,10.0,86,0.00,,,0.00,0,Wunderground v.1.15,2013-08-20 02:48:00,
2013-08-19 21:53:00,74.4,69.9,29.68,South,188,6.0,7.0,86,0.00,,,0.00,0,Wunderground v.1.15,2013-08-20 02:53:00,
2013-08-19 21:58:00,74.3,70.2,29.68,South,188,4.0,8.0,87,0.00,,,0.00,0,Wunderground v.1.15,2013-08-20 02:58:00,
2013-08-19 22:03:00,74.2,70.1,29.68,SSW,194,5.0,8.0,87,0.00,,,0.00,0,Wunderground v.1.15,2013-08-20 03:03:00,
2013-08-19 22:08:00,74.1,70.0,29.68,SSW,196,5.0,8.0,87,0.00,,,0.00,0,Wunderground v.1.15,2013-08-20 03:08:00,
2013-08-19 22:13:00,74.0,69.9,29.68,SSW,196,3.0,7.0,87,0.00,,,0.00,0,Wunderground v.1.15,2013-08-20 03:13:00,
2013-08-19 22:18:00,74.0,69.9,29.68,SSW,196,4.0,7.0,87,0.00,,,0.00,0,Wunderground v.1.15,2013-08-20 03:18:00,
2013-08-19 22:23:00,73.8,69.3,29.68,SSW,196,6.0,7.0,86,0.00,,,0.00,0,Wunderground v.1.15,2013-08-20 03:23:00,
2013-08-19 22:28:00,73.5,69.4,29.68,SSW,196,5.0,7.0,87,0.00,,,0.00,0,Wunderground v.1.15,2013-08-20 03:28:00,
2013-08-19 22:33:00,73.5,69.4,29.68,SSW,194,6.0,7.0,87,0.00,,,0.00,0,Wunderground v.1.15,2013-08-20 03:33:00,
2013-08-19 22:38:00,73.5,69.1,29.68,SSW,199,4.0,7.0,86,0.00,,,0.00,0,Wunderground v.1.15,2013-08-20 03:38:00,
2013-08-19 22:43:00,73.4,69.0,29.68,SSW,200,3.0,6.0,86,0.00,,,0.00,0,Wunderground v.1.15,2013-08-20 03:43:00,
2013-08-19 22:48:00,73.3,68.9,29.68,SSW,200,4.0,7.0,86,0.00,,,0.00,0,Wunderground v.1.15,2013-08-20 03:48:00,
2013-08-19 22:53:00,73.2,68.8,29.68,SSW,200,2.0,5.0,86,0.00,,,0.00,0,Wunderground v.1.15,2013-08-20 03:53:00,
2013-08-19 22:58:00,73.1,68.7,29.68,SSW,200,4.0,6.0,86,0.00,,,0.00,0,Wunderground v.1.15,2013-08-20 03:58:00,
2013-08-19 23:01:00,72.9,68.5,29.68,SSW,200,3.0,5.0,86,0.00,,,0.00,0,Wunderground v.1.15,2013-08-20 04:01:00,
2013-08-19 23:06:00,72.6,68.2,29.68,SSW,200,4.0,6.0,86,0.00,,,0.00,0,Wunderground v.1.15,2013-08-20 04:06:00,
2013-08-19 23:11:00,72.5,68.1,29.69,SSW,207,3.0,6.0,86,0.00,,,0.00,0,Wunderground v.1.15,2013-08-20 04:11:00,
2013-08-19 23:16:00,72.4,68.3,29.68,SSW,207,3.0,7.0,87,0.00,,,0.00,0,Wunderground v.1.15,2013-08-20 04:16:00,
2013-08-19 23:21:00,72.2,67.8,29.68,SSW,207,3.0,6.0,86,0.00,,,0.00,0,Wunderground v.1.15,2013-08-20 04:21:00,
2013-08-19 23:26:00,71.9,67.8,29.68,SSW,203,4.0,7.0,87,0.00,,,0.00,0,Wunderground v.1.15,2013-08-20 04:26:00,
2013-08-19 23:31:00,71.6,67.5,29.68,SSW,203,3.0,5.0,87,0.00,,,0.00,0,Wunderground v.1.15,2013-08-20 04:31:00,
2013-08-19 23:36:00,71.6,67.5,29.68,SSW,203,3.0,5.0,87,0.00,,,0.00,0,Wunderground v.1.15,2013-08-20 04:36:00,
2013-08-19 23:41:00,71.6,67.5,29.68,SSW,204,4.0,4.0,87,0.00,,,0.00,0,Wunderground v.1.15,2013-08-20 04:41:00,
2013-08-19 23:46:00,71.9,68.2,29.68,SSW,207,3.0,6.0,88,0.00,,,0.00,0,Wunderground v.1.15,2013-08-20 04:46:00,
2013-08-19 23:51:00,72.2,68.1,29.68,SW,221,4.0,6.0,87,0.00,,,0.00,0,Wunderground v.1.15,2013-08-20 04:51:00,
2013-08-19 23:56:00,72.1,68.0,29.68,SW,221,4.0,6.0,87,0.00,,,0.00,0,Wunderground v.1.15,2013-08-20 04:56:00,